Location: Poughquag
(41.6090°N, 73.6820°W)
Time: 14:55:32
(UTC-04:00)

Vanguard 2 - Pass Details

Date: 07 June 2020
Orbit: 552 x 2938 km, 32.9° (Epoch: 06 July)

Event Time Altitude Azimuth Distance (km) Brightness Sun altitude
Rises 13:26:03 0° 179° (S) 6,580 12.5 70.1°
Reaches altitude 10° 13:35:04 10° 154° (SSE) 5,755 12.3 69.3°
Maximum altitude 13:40:37 12° 135° (SE) 5,550 12.1 68.8°
Drops below altitude 10° 13:46:02 10° 117° (ESE) 5,632 12.0 68.3°
Sets 13:54:22 0° 92° (E) 6,295 12.0 67.4°
